User: anonymous   Login
Location: Bílinka
(49.3579°N, 14.3767°E)
Time: 20:42:24
(UTC+00:00)
Language:

CZ-6A DEB - Orbit

View from above orbital plane
View from above orbital plane
View from above satellite
View from above satellite

Ground track
Ground track

The orbit data is extracted from the following two-line orbital elements,

1 55882U 22151AAE 24061.47467427  .00001965  00000-0  11191-2 0  9999
2 55882  98.8104  65.7436 0050477 192.3567 167.6370 14.10274857 54735
Epoch (UTC): 01 March 2024 11:23:31
Eccentricity: 0.0050477
inclination: 98.8104°
perigee height: 822 km
apogee height: 895 km
right ascension of ascending node: 65.7436°
argument of perigee: 192.3567°
revolutions per day: 14.10274857
mean anomaly at epoch: 167.6370°
orbit number at epoch: 5473

The dashed part of the orbit path shows where the satellite is in the earth's shadow,  

DLR